Callaghan Valley, British Columbia

12:59 AM PDT on June 29, 2017 (GMT -0700)
Callaghan Valley

Weather History for CVOD - January, 2014

Change the Weather History Date:

Monday, January 27, 2014

  Actual Average Record
Temperature  
Mean Temperature 37 °F -  
Max Temperature 44 °F - - ()
Min Temperature 30 °F - - ()
Degree Days  
Heating Degree Days 28    
Moisture  
Dew Point 30 °F    
Average Humidity 85    
Maximum Humidity 94    
Minimum Humidity 63    
Precipitation  
Precipitation 0.01 in - - ()
Sea Level Pressure  
Sea Level Pressure 30.19 in    
Wind  
Wind Speed 2 mph ()    
Max Wind Speed 4 mph    
Max Gust Speed -    
T = Trace of Precipitation, MM = Missing Value Source: Averaged Metar Reports

Daily Weather History Graph

Daily Weather History Graph

Search for Another Location

Airport or City:

Trip Planner

Search our weather history database for the weather conditions in past years. The results will help you decide how hot, cold, wet, or windy it might be!

Date:

Astronomy

Jan. 27, 2014 Rise Set
Actual Time 7:52 AM PST 4:58 PM PST
Civil Twilight 7:17 AM PST 5:33 PM PST
Nautical Twilight 6:38 AM PST 6:13 PM PST
Astronomical Twilight 5:59 AM PST 6:51 PM PST
Moon 4:44 AM PST (1/27) 1:45 PM PST (1/27)
Length of Visible Light 10h 16m
Length of Day
9h 05m
Waning Crescent, 14% of the Moon is Illuminated
Jan 27
Waning Crescent
Jan 30
New
Feb 6
First Quarter
Feb 14
Full
Feb 22
Last Quarter

Hourly Weather History & Observations

Time (PST) Temp. Windchill Dew Point Humidity Pressure Visibility Wind Dir Wind Speed Gust Speed Precip Events Conditions
12:00 AM 32.9 °F 29.8 °F 31.1 °F 93% 30.14 in - East 3.5 mph - N/A   Unknown
1:00 AM 33.1 °F - 30.9 °F 92% 30.14 in - ENE 2.3 mph - N/A   Unknown
2:00 AM 32.2 °F - 30.6 °F 94% 30.14 in - East 1.2 mph - N/A   Unknown
3:00 AM 32.4 °F 29.1 °F 30.6 °F 93% 30.16 in - ENE 3.5 mph - N/A   Unknown
4:00 AM 32 °F - 30 °F 90% 30.17 in - ENE 2.3 mph - -  
4:00 AM 32.4 °F - 30.2 °F 92% 30.17 in - ENE 1.2 mph - N/A   Unknown
5:00 AM 31.5 °F - 30.0 °F 94% 30.17 in - East 1.2 mph - N/A   Unknown
6:00 AM 31.8 °F - 29.8 °F 92% 30.18 in - North 1.2 mph - N/A   Unknown
7:00 AM 31.8 °F 28.5 °F 30.2 °F 94% 30.19 in - ENE 3.5 mph - N/A   Unknown
8:00 AM 31.1 °F - 28.6 °F 90% 30.21 in - East 2.3 mph - N/A   Unknown
9:00 AM 32.2 °F - 29.3 °F 89% 30.21 in - Calm Calm - N/A   Unknown
10:00 AM 34 °F - 30 °F 80% 30.22 in - Calm Calm - -  
10:00 AM 33.8 °F - 30.0 °F 86% 30.22 in - Calm Calm - N/A   Unknown
11:00 AM 38.1 °F - 28.8 °F 69% 30.22 in - SSW 1.2 mph - 0.00 in   Unknown
12:00 PM 40.5 °F - 29.8 °F 66% 30.21 in - SSW 2.3 mph - N/A   Unknown
1:00 PM 41.7 °F - 30.0 °F 63% 30.19 in - SSW 1.2 mph - 0.00 in   Unknown
2:00 PM 40.6 °F - 30.6 °F 67% 30.19 in - SW 1.2 mph - N/A   Unknown
3:00 PM 41.0 °F - 30.2 °F 65% 30.17 in - SSW 2.3 mph - N/A   Unknown
4:00 PM 38 °F - 31 °F 69% 30.18 in - ESE 1.2 mph - -  
4:00 PM 37.8 °F - 31.5 °F 78% 30.18 in - ESE 1.2 mph - N/A   Unknown
5:00 PM 34.9 °F - 31.5 °F 87% 30.19 in - Calm Calm - N/A   Unknown
6:00 PM 33.4 °F - 30.2 °F 88% 30.19 in - SE 1.2 mph - N/A   Unknown
7:00 PM 32.5 °F - 29.7 °F 89% 30.19 in - Calm Calm - N/A   Unknown
8:00 PM 31.5 °F - 28.6 °F 89% 30.21 in - Calm Calm - N/A   Unknown
9:00 PM 30.4 °F - 28.0 °F 91% 30.21 in - ESE 1.2 mph - N/A   Unknown
10:00 PM 30 °F - 28 °F 87% 30.21 in - East 1.2 mph - -  
10:00 PM 30.2 °F - 27.7 °F 90% 30.21 in - East 2.3 mph - N/A   Unknown
11:00 PM 30.6 °F - 27.9 °F 90% 30.21 in - NE 1.2 mph - N/A   Unknown